Melfa, VA

12:55 PM EDT on October 18, 2017 (GMT -0400)
Accomack County

Weather History for KMFV - June, 2013

Change the Weather History Date:

Tuesday, June 25, 2013

  Actual Average (KWAL) Record (KWAL)
Temperature  
Mean Temperature 84 °F -  
Max Temperature 91 °F 81 °F 94 °F (1997)
Min Temperature 77 °F 66 °F 54 °F (1991)
Cooling Degree Days 19    
Growing Degree Days 34 (Base 50)    
Moisture  
Dew Point 73 °F    
Average Humidity 71    
Maximum Humidity 89    
Minimum Humidity 49    
Precipitation  
Precipitation 0.00 in - - ()
Sea Level Pressure  
Sea Level Pressure 30.01 in    
Wind  
Wind Speed 8 mph (WSW)    
Max Wind Speed 14 mph    
Max Gust Speed 17 mph    
Visibility 10 miles    
Events      
Averages and records for this station are not official NWS values.
T = Trace of Precipitation, MM = Missing Value Source: NWS Daily Summary

Daily Weather History Graph

Daily Weather History Graph

Search for Another Location

Airport or City:

Trip Planner

Search our weather history database for the weather conditions in past years. The results will help you decide how hot, cold, wet, or windy it might be!

Date:

Astronomy

Jun. 25, 2013 Rise Set
Actual Time 5:42 AM EDT 8:28 PM EDT
Civil Twilight 5:11 AM EDT 8:59 PM EDT
Nautical Twilight 4:32 AM EDT 9:38 PM EDT
Astronomical Twilight 3:48 AM EDT 10:23 PM EDT
Moon 10:16 PM EDT (6/25) 8:17 AM EDT (6/25)
Length of Visible Light 15h 48m
Length of Day
14h 45m
Waning Gibbous, 93% of the Moon is Illuminated
Jun 25
Waning Gibbous
Jun 30
Last Quarter
Jul 8
New
Jul 15
First Quarter
Jul 22
Full

Hourly Weather History & Observations

Time (EDT) Temp. Heat Index Dew Point Humidity Pressure Visibility Wind Dir Wind Speed Gust Speed Precip Events Conditions
1:16 AM 80.6 °F 86.2 °F 75.2 °F 84% 30.07 in 10.0 mi WSW 9.2 mph - N/A   Clear
1:36 AM 80.6 °F 86.2 °F 75.2 °F 84% 30.07 in 10.0 mi WSW 9.2 mph - N/A   Clear
1:56 AM 80.6 °F 86.2 °F 75.2 °F 84% 30.07 in 10.0 mi WSW 8.1 mph - N/A   Clear
2:16 AM 80.6 °F 86.2 °F 75.2 °F 84% 30.06 in 10.0 mi SW 8.1 mph - N/A   Clear
2:36 AM 80.6 °F 86.2 °F 75.2 °F 84% 30.06 in 10.0 mi SW 6.9 mph - N/A   Clear
2:56 AM 78.8 °F - 73.4 °F 83% 30.06 in 10.0 mi SW 6.9 mph - N/A   Clear
3:16 AM 78.8 °F - 73.4 °F 83% 30.06 in 10.0 mi SW 5.8 mph - N/A   Clear
3:36 AM 78.8 °F - 73.4 °F 83% 30.05 in 10.0 mi SW 5.8 mph - N/A   Clear
3:56 AM 78.8 °F - 73.4 °F 83% 30.05 in 10.0 mi SW 6.9 mph - N/A   Clear
4:16 AM 78.8 °F - 73.4 °F 83% 30.05 in 10.0 mi SW 6.9 mph - N/A   Clear
4:36 AM 78.8 °F - 73.4 °F 83% 30.05 in 10.0 mi SW 4.6 mph - N/A   Clear
4:56 AM 78.8 °F - 73.4 °F 83% 30.05 in 10.0 mi SW 6.9 mph - N/A   Clear
5:16 AM 78.8 °F - 73.4 °F 83% 30.05 in 10.0 mi SW 6.9 mph - N/A   Clear
5:36 AM 77.0 °F - 73.4 °F 89% 30.05 in 10.0 mi SW 8.1 mph - N/A   Clear
5:56 AM 77.0 °F - 73.4 °F 89% 30.05 in 10.0 mi WSW 6.9 mph - N/A   Clear
6:18 AM 77.0 °F - 73.4 °F 89% 30.06 in 10.0 mi WSW 8.1 mph - N/A   Clear
6:36 AM 78.8 °F - 73.4 °F 83% 30.06 in 10.0 mi WSW 8.1 mph - N/A   Clear
6:56 AM 78.8 °F - 73.4 °F 83% 30.05 in 10.0 mi WSW 8.1 mph - N/A   Clear
7:16 AM 78.8 °F - 73.4 °F 83% 30.05 in 10.0 mi WSW 8.1 mph - N/A   Clear
7:36 AM 80.6 °F 85.4 °F 73.4 °F 79% 30.05 in 10.0 mi WSW 9.2 mph - N/A   Clear
7:56 AM 80.6 °F 85.4 °F 73.4 °F 79% 30.05 in 10.0 mi WSW 9.2 mph - N/A   Clear
8:16 AM 80.6 °F 85.4 °F 73.4 °F 79% 30.04 in 10.0 mi WSW 9.2 mph 16.1 mph N/A   Clear
8:36 AM 82.4 °F 88.2 °F 73.4 °F 74% 30.04 in 10.0 mi WSW 11.5 mph - N/A   Clear
8:56 AM 82.4 °F 88.2 °F 73.4 °F 74% 30.05 in 10.0 mi West 9.2 mph - N/A   Clear
9:17 AM 82.4 °F 88.2 °F 73.4 °F 74% 30.05 in 10.0 mi WSW 13.8 mph 17.3 mph N/A   Clear
9:36 AM 82.4 °F 88.2 °F 73.4 °F 74% 30.04 in 10.0 mi West 9.2 mph - N/A   Clear
9:56 AM 84.2 °F 90.9 °F 73.4 °F 70% 30.04 in 10.0 mi WSW 10.4 mph - N/A   Clear
10:16 AM 84.2 °F 89.6 °F 71.6 °F 66% 30.04 in 10.0 mi West 9.2 mph - N/A   Clear
10:36 AM 84.2 °F 90.9 °F 73.4 °F 70% 30.04 in 10.0 mi SW 9.2 mph - N/A   Clear
10:56 AM 86.0 °F 93.4 °F 73.4 °F 66% 30.04 in 10.0 mi WSW 9.2 mph - N/A   Clear
11:16 AM 86.0 °F 91.8 °F 71.6 °F 62% 30.04 in 10.0 mi West 10.4 mph - N/A   Clear
11:36 AM 86.0 °F 91.8 °F 71.6 °F 62% 30.03 in 10.0 mi SW 8.1 mph - N/A   Clear
11:56 AM 87.8 °F 95.6 °F 73.4 °F 62% 30.04 in 10.0 mi West 8.1 mph - N/A   Clear
12:16 PM 89.6 °F 98.2 °F 73.4 °F 59% 30.04 in 10.0 mi West 11.5 mph - N/A   Clear
12:36 PM 87.8 °F 95.6 °F 73.4 °F 62% 30.05 in 10.0 mi West 10.4 mph - N/A   Clear
12:56 PM 87.8 °F 95.6 °F 73.4 °F 62% 30.03 in 10.0 mi WSW 6.9 mph - N/A   Clear
1:16 PM 89.6 °F 98.2 °F 73.4 °F 59% 30.03 in 10.0 mi West 5.8 mph - N/A   Clear
1:36 PM 89.6 °F 98.2 °F 73.4 °F 59% 30.03 in 10.0 mi West 9.2 mph - N/A   Clear
1:58 PM 89.6 °F 98.2 °F 73.4 °F 59% 30.02 in 10.0 mi West 8.1 mph - N/A   Scattered Clouds
2:36 PM 89.6 °F 98.2 °F 73.4 °F 59% 30.01 in 10.0 mi WSW 9.2 mph - N/A   Scattered Clouds
2:56 PM 91.4 °F 100.1 °F 73.4 °F 55% 30.00 in 10.0 mi West 5.8 mph - N/A   Scattered Clouds
3:16 PM 91.4 °F 100.1 °F 73.4 °F 55% 30.00 in 10.0 mi WSW 6.9 mph - N/A   Clear
3:36 PM 91.4 °F 100.1 °F 73.4 °F 55% 30.00 in 10.0 mi West 6.9 mph - N/A   Scattered Clouds
4:56 PM 91.4 °F 98.4 °F 71.6 °F 52% 29.97 in 7.0 mi WSW 9.2 mph - N/A   Clear
5:25 PM 91.4 °F 96.8 °F 69.8 °F 49% 29.96 in 10.0 mi WSW 8.1 mph - N/A   Clear
5:45 PM 91.4 °F 96.8 °F 69.8 °F 49% 29.96 in 10.0 mi West 4.6 mph - N/A   Clear
5:56 PM 91.4 °F 98.4 °F 71.6 °F 52% 29.96 in 10.0 mi West 6.9 mph - N/A   Clear
6:16 PM 91.4 °F 98.4 °F 71.6 °F 52% 29.95 in 10.0 mi WSW 6.9 mph - N/A   Clear
6:36 PM 91.4 °F 98.4 °F 71.6 °F 52% 29.94 in 10.0 mi WSW 8.1 mph - N/A   Clear
6:56 PM 91.4 °F 98.4 °F 71.6 °F 52% 29.94 in 10.0 mi SW 6.9 mph - N/A   Clear
7:16 PM 89.6 °F 98.2 °F 73.4 °F 59% 29.94 in 10.0 mi SW 5.8 mph - N/A   Clear
7:36 PM 89.6 °F 98.2 °F 73.4 °F 59% 29.94 in 10.0 mi SW 3.5 mph - N/A   Clear
7:56 PM 87.8 °F 95.6 °F 73.4 °F 62% 29.94 in 10.0 mi Calm Calm - N/A   Clear
8:16 PM 84.2 °F 92.3 °F 75.2 °F 74% 29.94 in 10.0 mi SSW 3.5 mph - N/A   Clear
8:36 PM 84.2 °F 92.3 °F 75.2 °F 74% 29.94 in 10.0 mi SSW 5.8 mph - N/A   Clear
8:56 PM 84.2 °F 90.9 °F 73.4 °F 70% 29.94 in 10.0 mi SSW 4.6 mph - N/A   Clear
9:16 PM 84.2 °F 90.9 °F 73.4 °F 70% 29.96 in 10.0 mi SW 5.8 mph - N/A   Clear
9:36 PM 82.4 °F 88.2 °F 73.4 °F 74% 29.97 in 10.0 mi SW 4.6 mph - N/A   Clear
9:56 PM 82.4 °F 88.2 °F 73.4 °F 74% 29.98 in 7.0 mi SW 3.5 mph - N/A   Clear
10:16 PM 82.4 °F 88.2 °F 73.4 °F 74% 29.98 in 7.0 mi SW 4.6 mph - N/A   Clear
10:36 PM 80.6 °F 85.4 °F 73.4 °F 79% 29.98 in 7.0 mi SSW 4.6 mph - N/A   Clear
10:56 PM 80.6 °F 85.4 °F 73.4 °F 79% 29.97 in 7.0 mi SW 6.9 mph - N/A   Clear
11:16 PM 82.4 °F 88.2 °F 73.4 °F 74% 29.97 in 10.0 mi SW 6.9 mph - N/A   Clear
11:36 PM 82.4 °F 89.5 °F 75.2 °F 79% 29.97 in 10.0 mi WSW 6.9 mph - N/A   Clear
11:56 PM 84.2 °F 92.3 °F 75.2 °F 74% 29.96 in 10.0 mi SW 8.1 mph - N/A   Clear